スペースウォッチ彗星

P/2019 D2 ( Spacewatch )

English version
Home page
Updated on April 13, 2019

---------------------------------------------------------------------

・ プロフィール

検出日 2019年2月28日
検出光度 20.1等
検出者 Mount Lemmon Survey

・ 軌道要素

Epoch 2019 July 16.0 TT = JDT 2458680.5
T 2019 Aug. 1.55687 TT                                  MPCW
q   2.3335626            (2000.0)            P               Q
n   0.14890180     Peri.   31.20264     -0.81767860     +0.57547774
a   3.5253542      Node   184.02850     -0.56244048     -0.80418735
e   0.3380629      Incl.   12.38609     -0.12272901     -0.14868783
P   6.62
From 55 observations 2006 Mar. 26-2019 Apr. 3, mean residual 0".6.

・ 光度変化

        m1 = 15.0 + 5 logΔ + 10.0 log r

---------------------------------------------------------------------

軌道要素はM.P.E.C. 2019-G21に掲載されたものです。
光度グラフはComet for Windowsで作成したものです。

---------------------------------------------------------------------

Copyright(C) Seiichi Yoshida (comet@aerith.net). All rights reserved.